AFV262 FQMA-FACT

Flight info

Callsign AFV262
Flight time 2h 39m
Altitude 38000
Route VMA DCT TONKA DCT WRV DCT IXARA DCT BLV UZ40 ESRUK UQ51 GETEN GETEN1B
Aircraft A20N/M-SDE2E3FGHIRWXY/LB1

Departure

Time 2026-04-27 14:19
Airport Maputo Airport (FQMA)

Arrival

Time 2026-04-27 16:58
Airport Cape Town International Airport (FACT)
Time Latitude Longitude Altitude Speed Heading
2026-04-27 14:18 -25.98475 32.35643 11192 ft 331 kts 238°
2026-04-27 14:19 -25.99685 32.33457 12011 ft 333 kts 238°
2026-04-27 14:19 -26.00903 32.31254 12757 ft 337 kts 239°
2026-04-27 14:19 -26.02152 32.28993 13536 ft 340 kts 239°
2026-04-27 14:19 -26.03395 32.26740 14259 ft 342 kts 239°
2026-04-27 14:20 -26.04636 32.24493 15068 ft 340 kts 239°
2026-04-27 14:20 -26.05860 32.22275 15771 ft 341 kts 240°
2026-04-27 14:20 -26.07120 32.19992 16515 ft 341 kts 240°
2026-04-27 14:20 -26.08363 32.17738 17229 ft 342 kts 240°
2026-04-27 14:21 -26.09595 32.15503 17880 ft 344 kts 240°
2026-04-27 14:21 -26.10841 32.13239 18494 ft 345 kts 240°
2026-04-27 14:21 -26.12099 32.10949 18971 ft 349 kts 241°
2026-04-27 14:21 -26.13375 32.08640 19510 ft 351 kts 240°
2026-04-27 14:22 -26.14674 32.06327 20023 ft 353 kts 240°
2026-04-27 14:22 -26.15547 32.04779 20442 ft 353 kts 240°
2026-04-27 14:22 -26.16867 32.02442 20940 ft 357 kts 240°
2026-04-27 14:22 -26.18188 32.00098 21526 ft 358 kts 241°
2026-04-27 14:23 -26.19515 31.97738 21991 ft 361 kts 241°
2026-04-27 14:23 -26.20854 31.95355 22535 ft 363 kts 241°
2026-04-27 14:23 -26.22199 31.92959 23057 ft 365 kts 241°
2026-04-27 14:23 -26.23549 31.90551 23536 ft 368 kts 241°
2026-04-27 14:24 -26.24905 31.88131 23994 ft 369 kts 241°
2026-04-27 14:24 -26.26268 31.85696 24432 ft 371 kts 242°
2026-04-27 14:24 -26.27637 31.83249 24873 ft 372 kts 242°
2026-04-27 14:24 -26.28990 31.80831 25294 ft 373 kts 242°
2026-04-27 14:25 -26.30371 31.78360 25720 ft 375 kts 242°
2026-04-27 14:25 -26.31752 31.75888 26133 ft 376 kts 242°
2026-04-27 14:25 -26.33136 31.73409 26522 ft 378 kts 242°
2026-04-27 14:25 -26.34527 31.70915 26909 ft 379 kts 242°
2026-04-27 14:26 -26.35926 31.68408 27301 ft 380 kts 242°
2026-04-27 14:26 -26.37326 31.65896 27678 ft 381 kts 242°
2026-04-27 14:26 -26.38726 31.63384 28070 ft 382 kts 243°
2026-04-27 14:26 -26.40132 31.60858 28452 ft 383 kts 243°
2026-04-27 14:27 -26.41543 31.58322 28799 ft 385 kts 243°
2026-04-27 14:27 -26.42957 31.55780 29152 ft 386 kts 243°
2026-04-27 14:27 -26.44355 31.53263 29442 ft 388 kts 243°
2026-04-27 14:27 -26.45799 31.50663 29803 ft 390 kts 243°
2026-04-27 14:28 -26.47248 31.48053 30109 ft 391 kts 243°
2026-04-27 14:28 -26.48686 31.45463 30379 ft 392 kts 243°
2026-04-27 14:28 -26.50124 31.42869 30616 ft 395 kts 243°
2026-04-27 14:28 -26.51577 31.40248 30870 ft 397 kts 243°
2026-04-27 14:29 -26.53032 31.37620 31177 ft 398 kts 243°
2026-04-27 14:29 -26.54492 31.34984 31519 ft 398 kts 243°
2026-04-27 14:29 -26.55943 31.32363 31881 ft 397 kts 243°
2026-04-27 14:29 -26.57398 31.29733 32246 ft 397 kts 243°
2026-04-27 14:30 -26.58863 31.27082 32591 ft 396 kts 243°
2026-04-27 14:30 -26.60294 31.24492 32909 ft 395 kts 243°
2026-04-27 14:30 -26.61735 31.21883 33258 ft 394 kts 243°
2026-04-27 14:30 -26.63173 31.19276 33604 ft 394 kts 243°
2026-04-27 14:31 -26.64608 31.16674 33959 ft 393 kts 243°
2026-04-27 14:31 -26.66041 31.14071 34255 ft 392 kts 243°
2026-04-27 14:31 -26.67468 31.11481 34539 ft 390 kts 243°
2026-04-27 14:31 -26.68908 31.08862 34803 ft 389 kts 244°
2026-04-27 14:32 -26.70328 31.06280 35055 ft 389 kts 244°
2026-04-27 14:32 -26.71744 31.03702 35312 ft 388 kts 244°
2026-04-27 14:32 -26.73156 31.01130 35577 ft 387 kts 244°
2026-04-27 14:32 -26.74565 30.98563 35842 ft 386 kts 244°
2026-04-27 14:33 -26.75969 30.96004 36101 ft 385 kts 243°
2026-04-27 14:33 -26.77367 30.93455 36367 ft 383 kts 243°
2026-04-27 14:33 -26.78759 30.90914 36602 ft 383 kts 243°
2026-04-27 14:33 -26.80145 30.88381 36847 ft 381 kts 243°
2026-04-27 14:34 -26.81531 30.85850 37088 ft 380 kts 243°
2026-04-27 14:34 -26.82910 30.83328 37284 ft 380 kts 244°
2026-04-27 14:34 -26.84290 30.80806 37478 ft 379 kts 243°
2026-04-27 14:34 -26.85662 30.78296 37721 ft 377 kts 243°
2026-04-27 14:35 -26.87030 30.75790 37943 ft 376 kts 243°
2026-04-27 14:35 -26.89755 30.70796 38031 ft 374 kts 243°
2026-04-27 14:36 -26.92470 30.65814 38026 ft 374 kts 244°
2026-04-27 14:36 -26.95179 30.60840 38030 ft 374 kts 244°
2026-04-27 14:37 -26.97891 30.55854 38029 ft 374 kts 244°
2026-04-27 14:37 -27.00600 30.50867 38034 ft 374 kts 244°
2026-04-27 14:38 -27.03305 30.45884 38047 ft 374 kts 244°
2026-04-27 14:38 -27.06008 30.40898 38048 ft 374 kts 244°
2026-04-27 14:39 -27.08697 30.35932 38051 ft 374 kts 244°
2026-04-27 14:39 -27.11401 30.30934 38054 ft 374 kts 244°
2026-04-27 14:40 -27.14103 30.25933 38065 ft 373 kts 244°
2026-04-27 14:40 -27.16815 30.20906 38062 ft 377 kts 244°
2026-04-27 14:41 -27.19526 30.15877 38072 ft 376 kts 244°
2026-04-27 14:41 -27.22237 30.10843 38076 ft 376 kts 244°
2026-04-27 14:42 -27.24937 30.05824 38084 ft 376 kts 244°
2026-04-27 14:42 -27.27646 30.00781 38084 ft 377 kts 244°
2026-04-27 14:43 -27.30342 29.95756 38077 ft 377 kts 244°
2026-04-27 14:43 -27.33055 29.90696 38085 ft 378 kts 244°
2026-04-27 14:44 -27.35768 29.85627 38076 ft 378 kts 244°
2026-04-27 14:44 -27.38479 29.80556 38074 ft 378 kts 244°
2026-04-27 14:45 -27.41175 29.75510 38086 ft 378 kts 244°
2026-04-27 14:45 -27.43885 29.70430 38089 ft 379 kts 244°
2026-04-27 14:46 -27.46601 29.65334 38085 ft 379 kts 244°
2026-04-27 14:46 -27.49315 29.60233 38088 ft 379 kts 244°
2026-04-27 14:47 -27.52023 29.55139 38093 ft 379 kts 244°
2026-04-27 14:47 -27.54734 29.50034 38099 ft 378 kts 244°
2026-04-27 14:48 -27.57418 29.44971 38101 ft 379 kts 244°
2026-04-27 14:48 -27.61475 29.37310 38117 ft 379 kts 244°
2026-04-27 14:49 -27.64178 29.32199 38110 ft 380 kts 244°
2026-04-27 14:49 -27.66884 29.27076 38114 ft 380 kts 244°
2026-04-27 14:50 -27.69585 29.21956 38108 ft 379 kts 244°
2026-04-27 14:50 -27.72270 29.16863 38113 ft 378 kts 244°
2026-04-27 14:51 -27.74990 29.11766 38111 ft 379 kts 242°
2026-04-27 14:51 -27.77638 29.07793 38111 ft 385 kts 236°
2026-04-27 14:52 -27.82184 29.02839 38105 ft 393 kts 227°
2026-04-27 14:52 -27.86497 28.99067 38104 ft 393 kts 226°
2026-04-27 14:53 -27.90818 28.95269 38108 ft 394 kts 226°
2026-04-27 14:53 -27.94981 28.91283 38105 ft 387 kts 233°
2026-04-27 14:54 -27.98382 28.86648 38111 ft 378 kts 242°
2026-04-27 14:54 -28.00971 28.81524 38109 ft 373 kts 248°
2026-04-27 14:55 -28.03317 28.76280 38106 ft 373 kts 248°
2026-04-27 14:55 -28.05692 28.70987 38121 ft 374 kts 248°
2026-04-27 14:56 -28.07646 28.66612 38119 ft 373 kts 248°
2026-04-27 14:56 -28.09981 28.61376 38120 ft 371 kts 248°
2026-04-27 14:57 -28.12319 28.56120 38122 ft 372 kts 248°
2026-04-27 14:57 -28.14649 28.50878 38123 ft 371 kts 248°
2026-04-27 14:58 -28.16956 28.45677 38125 ft 371 kts 249°
2026-04-27 14:58 -28.19255 28.40437 38132 ft 371 kts 249°
2026-04-27 14:59 -28.21567 28.35197 38142 ft 371 kts 249°
2026-04-27 14:59 -28.23891 28.29949 38144 ft 371 kts 249°
2026-04-27 15:00 -28.26211 28.24705 38149 ft 371 kts 249°
2026-04-27 15:00 -28.28517 28.19485 38131 ft 368 kts 249°
2026-04-27 15:01 -28.30798 28.14314 38123 ft 368 kts 249°
2026-04-27 15:01 -28.33093 28.09100 38135 ft 368 kts 249°
2026-04-27 15:02 -28.35369 28.03925 38141 ft 367 kts 249°
2026-04-27 15:02 -28.37641 27.98751 38134 ft 367 kts 249°
2026-04-27 15:03 -28.39922 27.93551 38143 ft 366 kts 249°
2026-04-27 15:03 -28.42183 27.88388 38143 ft 365 kts 249°
2026-04-27 15:04 -28.44447 27.83209 38136 ft 366 kts 249°
2026-04-27 15:04 -28.46722 27.78030 38144 ft 365 kts 249°
2026-04-27 15:05 -28.48986 27.72887 38142 ft 364 kts 249°
2026-04-27 15:05 -28.51240 27.67714 38135 ft 364 kts 249°
2026-04-27 15:06 -28.53483 27.62550 38137 ft 364 kts 249°
2026-04-27 15:06 -28.55712 27.57407 38137 ft 364 kts 249°
2026-04-27 15:07 -28.57955 27.52229 38136 ft 364 kts 249°
2026-04-27 15:07 -28.60185 27.47075 38139 ft 364 kts 249°
2026-04-27 15:08 -28.62420 27.41904 38143 ft 363 kts 249°
2026-04-27 15:08 -28.64641 27.36760 38146 ft 363 kts 249°
2026-04-27 15:09 -28.66872 27.31584 38143 ft 363 kts 250°
2026-04-27 15:09 -28.69100 27.26411 38145 ft 363 kts 250°
2026-04-27 15:10 -28.71307 27.21278 38145 ft 362 kts 250°
2026-04-27 15:10 -28.73523 27.16121 38146 ft 362 kts 250°
2026-04-27 15:11 -28.75739 27.10956 38146 ft 361 kts 250°
2026-04-27 15:11 -28.77931 27.05839 38143 ft 361 kts 250°
2026-04-27 15:12 -28.80136 27.00687 38143 ft 361 kts 250°
2026-04-27 15:12 -28.82334 26.95543 38146 ft 360 kts 250°
2026-04-27 15:13 -28.84521 26.90419 38149 ft 360 kts 250°
2026-04-27 15:13 -28.86715 26.85275 38151 ft 359 kts 250°
2026-04-27 15:14 -28.88888 26.80170 38143 ft 359 kts 250°
2026-04-27 15:14 -28.91079 26.75019 38144 ft 359 kts 250°
2026-04-27 15:15 -28.93243 26.69923 38148 ft 359 kts 250°
2026-04-27 15:15 -28.95423 26.64782 38146 ft 358 kts 250°
2026-04-27 15:16 -28.97584 26.59679 38154 ft 358 kts 250°
2026-04-27 15:16 -28.99758 26.54541 38156 ft 358 kts 250°
2026-04-27 15:17 -29.01927 26.49407 38157 ft 358 kts 251°
2026-04-27 15:17 -29.04085 26.44294 38157 ft 358 kts 251°
2026-04-27 15:18 -29.06252 26.39149 38159 ft 358 kts 251°
2026-04-27 15:18 -29.08422 26.34046 38162 ft 359 kts 249°
2026-04-27 15:19 -29.11086 26.29169 38159 ft 366 kts 242°
2026-04-27 15:19 -29.14425 26.24654 38157 ft 373 kts 237°
2026-04-27 15:20 -29.17922 26.20304 38157 ft 373 kts 237°
2026-04-27 15:20 -29.21437 26.15913 38161 ft 373 kts 237°
2026-04-27 15:21 -29.24931 26.11549 38164 ft 373 kts 237°
2026-04-27 15:21 -29.28422 26.07186 38164 ft 373 kts 237°
2026-04-27 15:22 -29.31935 26.02791 38165 ft 372 kts 238°
2026-04-27 15:22 -29.35423 25.98422 38164 ft 372 kts 238°
2026-04-27 15:23 -29.38902 25.94059 38168 ft 372 kts 238°
2026-04-27 15:23 -29.42402 25.89665 38163 ft 371 kts 238°
2026-04-27 15:24 -29.45889 25.85284 38165 ft 371 kts 238°
2026-04-27 15:24 -29.49353 25.80926 38164 ft 370 kts 238°
2026-04-27 15:25 -29.52806 25.76576 38160 ft 370 kts 238°
2026-04-27 15:25 -29.56263 25.72218 38158 ft 369 kts 238°
2026-04-27 15:26 -29.59723 25.67850 38159 ft 368 kts 238°
2026-04-27 15:26 -29.63177 25.63486 38153 ft 368 kts 238°
2026-04-27 15:27 -29.66626 25.59122 38150 ft 367 kts 239°
2026-04-27 15:27 -29.70040 25.54798 38148 ft 367 kts 239°
2026-04-27 15:28 -29.73476 25.50442 38157 ft 367 kts 239°
2026-04-27 15:28 -29.76907 25.46087 38146 ft 366 kts 239°
2026-04-27 15:29 -29.80317 25.41755 38160 ft 366 kts 239°
2026-04-27 15:29 -29.83737 25.37404 38154 ft 366 kts 239°
2026-04-27 15:30 -29.87141 25.33071 38165 ft 365 kts 239°
2026-04-27 15:30 -29.90002 25.29423 38148 ft 365 kts 239°
2026-04-27 15:31 -29.93390 25.25100 38152 ft 364 kts 239°
2026-04-27 15:31 -29.96789 25.20758 38149 ft 364 kts 239°
2026-04-27 15:32 -30.00193 25.16404 38151 ft 365 kts 239°
2026-04-27 15:32 -30.03599 25.12045 38151 ft 365 kts 239°
2026-04-27 15:33 -30.07007 25.07677 38156 ft 365 kts 239°
2026-04-27 15:33 -30.10392 25.03333 38157 ft 365 kts 239°
2026-04-27 15:34 -30.13793 24.98966 38156 ft 365 kts 240°
2026-04-27 15:34 -30.17191 24.94596 38160 ft 365 kts 240°
2026-04-27 15:35 -30.20573 24.90245 38160 ft 364 kts 240°
2026-04-27 15:35 -30.23965 24.85872 38155 ft 364 kts 240°
2026-04-27 15:36 -30.27335 24.81522 38156 ft 364 kts 240°
2026-04-27 15:36 -30.30725 24.77143 38161 ft 364 kts 240°
2026-04-27 15:37 -30.34093 24.72789 38160 ft 364 kts 240°
2026-04-27 15:37 -30.37480 24.68410 38163 ft 364 kts 240°
2026-04-27 15:38 -30.40877 24.64036 38166 ft 364 kts 240°
2026-04-27 15:38 -30.44255 24.59691 38169 ft 364 kts 240°
2026-04-27 15:39 -30.47645 24.55324 38161 ft 362 kts 240°
2026-04-27 15:39 -30.50984 24.51015 38150 ft 361 kts 240°
2026-04-27 15:40 -30.54349 24.46665 38160 ft 361 kts 240°
2026-04-27 15:40 -30.57678 24.42359 38164 ft 360 kts 240°
2026-04-27 15:41 -30.61030 24.38017 38161 ft 359 kts 240°
2026-04-27 15:41 -30.64359 24.33701 38168 ft 359 kts 240°
2026-04-27 15:42 -30.67686 24.29382 38166 ft 359 kts 240°
2026-04-27 15:42 -30.71008 24.25067 38169 ft 359 kts 241°
2026-04-27 15:43 -30.74338 24.20734 38169 ft 359 kts 241°
2026-04-27 15:43 -30.77664 24.16403 38166 ft 358 kts 241°
2026-04-27 15:44 -30.80970 24.12093 38167 ft 357 kts 241°
2026-04-27 15:44 -30.84283 24.07770 38172 ft 356 kts 241°
2026-04-27 15:45 -30.87558 24.03489 38166 ft 355 kts 241°
2026-04-27 15:45 -30.90854 23.99177 38167 ft 355 kts 241°
2026-04-27 15:46 -30.94113 23.94910 38166 ft 353 kts 241°
2026-04-27 15:46 -30.97377 23.90632 38164 ft 352 kts 241°
2026-04-27 15:47 -31.00631 23.86361 38163 ft 351 kts 241°
2026-04-27 15:47 -31.03874 23.82099 38162 ft 351 kts 241°
2026-04-27 15:48 -31.07108 23.77845 38166 ft 350 kts 241°
2026-04-27 15:49 -31.11938 23.71482 38168 ft 348 kts 242°
2026-04-27 15:49 -31.15149 23.67247 38167 ft 348 kts 242°
2026-04-27 15:50 -31.18324 23.63053 38166 ft 347 kts 242°
2026-04-27 15:50 -31.21540 23.58802 38162 ft 346 kts 242°
2026-04-27 15:51 -31.24700 23.54620 38155 ft 345 kts 242°
2026-04-27 15:51 -31.27871 23.50416 38160 ft 344 kts 242°
2026-04-27 15:52 -31.31028 23.46226 38158 ft 343 kts 242°
2026-04-27 15:52 -31.34187 23.42033 38163 ft 343 kts 242°
2026-04-27 15:53 -31.37337 23.37851 38160 ft 342 kts 242°
2026-04-27 15:53 -31.40485 23.33665 38158 ft 342 kts 242°
2026-04-27 15:54 -31.43627 23.29483 38161 ft 342 kts 242°
2026-04-27 15:54 -31.46767 23.25296 38165 ft 342 kts 242°
2026-04-27 15:55 -31.49910 23.21101 38173 ft 342 kts 242°
2026-04-27 15:55 -31.53028 23.16937 38178 ft 342 kts 242°
2026-04-27 15:56 -31.56162 23.12745 38180 ft 342 kts 242°
2026-04-27 15:56 -31.59297 23.08547 38180 ft 342 kts 242°
2026-04-27 15:57 -31.62428 23.04350 38188 ft 341 kts 242°
2026-04-27 15:57 -31.65555 23.00153 38200 ft 341 kts 242°
2026-04-27 15:58 -31.68678 22.95955 38192 ft 341 kts 242°
2026-04-27 15:58 -31.71802 22.91754 38205 ft 341 kts 242°
2026-04-27 15:59 -31.74923 22.87551 38184 ft 340 kts 242°
2026-04-27 15:59 -31.78006 22.83399 38195 ft 339 kts 242°
2026-04-27 16:00 -31.81099 22.79223 38198 ft 339 kts 242°
2026-04-27 16:00 -31.84191 22.75047 38202 ft 338 kts 242°
2026-04-27 16:01 -31.87276 22.70875 38208 ft 337 kts 242°
2026-04-27 16:01 -31.90359 22.66698 38209 ft 338 kts 242°
2026-04-27 16:02 -31.93440 22.62522 38218 ft 337 kts 242°
2026-04-27 16:02 -31.96517 22.58347 38216 ft 337 kts 242°
2026-04-27 16:03 -31.99585 22.54183 38221 ft 336 kts 242°
2026-04-27 16:03 -32.02645 22.50021 38221 ft 335 kts 242°
2026-04-27 16:04 -32.05700 22.45860 38223 ft 335 kts 242°
2026-04-27 16:04 -32.08736 22.41722 38223 ft 335 kts 243°
2026-04-27 16:05 -32.11783 22.37567 38229 ft 335 kts 243°
2026-04-27 16:05 -32.14834 22.33397 38227 ft 336 kts 243°
2026-04-27 16:06 -32.17881 22.29233 38226 ft 334 kts 243°
2026-04-27 16:06 -32.20930 22.25058 38221 ft 335 kts 243°
2026-04-27 16:07 -32.23977 22.20881 38225 ft 335 kts 243°
2026-04-27 16:07 -32.27002 22.16731 38227 ft 335 kts 243°
2026-04-27 16:08 -32.30046 22.12550 38225 ft 336 kts 243°
2026-04-27 16:08 -32.32594 22.09048 38218 ft 335 kts 243°
2026-04-27 16:09 -32.35627 22.04872 38212 ft 335 kts 243°
2026-04-27 16:09 -32.40166 21.98616 38220 ft 335 kts 243°
2026-04-27 16:10 -32.46253 21.90208 38215 ft 336 kts 243°
2026-04-27 16:11 -32.50824 21.83885 38219 ft 337 kts 243°
2026-04-27 16:12 -32.55393 21.77553 38219 ft 337 kts 243°
2026-04-27 16:13 -32.59942 21.71237 38220 ft 337 kts 243°
2026-04-27 16:13 -32.64507 21.64887 38217 ft 337 kts 243°
2026-04-27 16:14 -32.70588 21.56412 38226 ft 337 kts 243°
2026-04-27 16:15 -32.76674 21.47910 38223 ft 337 kts 243°
2026-04-27 16:16 -32.79715 21.43655 37804 ft 337 kts 243°
2026-04-27 16:16 -32.82745 21.39411 37298 ft 336 kts 243°
2026-04-27 16:17 -32.85774 21.35159 36809 ft 338 kts 243°
2026-04-27 16:17 -32.88813 21.30891 36335 ft 338 kts 243°
2026-04-27 16:18 -32.91854 21.26615 35854 ft 338 kts 243°
2026-04-27 16:18 -32.94904 21.22321 35390 ft 339 kts 243°
2026-04-27 16:19 -32.96432 21.20169 35158 ft 340 kts 243°
2026-04-27 16:19 -32.97960 21.18014 34937 ft 341 kts 243°
2026-04-27 16:20 -33.02559 21.11522 34275 ft 342 kts 243°
2026-04-27 16:20 -33.04100 21.09345 34021 ft 343 kts 243°
2026-04-27 16:20 -33.07191 21.04967 33511 ft 347 kts 243°
2026-04-27 16:21 -33.08748 21.02763 33259 ft 348 kts 243°
2026-04-27 16:21 -33.13449 20.96100 32517 ft 351 kts 242°
2026-04-27 16:22 -33.15027 20.93860 32277 ft 353 kts 242°
2026-04-27 16:22 -33.18192 20.89366 31799 ft 354 kts 242°
2026-04-27 16:22 -33.19776 20.87115 31564 ft 355 kts 242°
2026-04-27 16:23 -33.21369 20.84845 31328 ft 357 kts 242°
2026-04-27 16:23 -33.24551 20.80316 30865 ft 358 kts 242°
2026-04-27 16:23 -33.26149 20.78040 30637 ft 357 kts 242°
2026-04-27 16:24 -33.27742 20.75770 30414 ft 356 kts 242°
2026-04-27 16:24 -33.30917 20.71238 29891 ft 355 kts 242°
2026-04-27 16:25 -33.34091 20.66697 29348 ft 354 kts 242°
2026-04-27 16:25 -33.37247 20.62181 28814 ft 355 kts 241°
2026-04-27 16:26 -33.40416 20.57641 28293 ft 354 kts 241°
2026-04-27 16:26 -33.43568 20.53120 27769 ft 352 kts 241°
2026-04-27 16:27 -33.46691 20.48633 27273 ft 353 kts 241°
2026-04-27 16:27 -33.51405 20.41855 26541 ft 353 kts 240°
2026-04-27 16:28 -33.54546 20.37333 26056 ft 353 kts 240°
2026-04-27 16:28 -33.57694 20.32826 25584 ft 354 kts 239°
2026-04-27 16:29 -33.62708 20.26259 24883 ft 355 kts 238°
2026-04-27 16:30 -33.66039 20.21888 24435 ft 353 kts 238°
2026-04-27 16:30 -33.69325 20.17539 23996 ft 355 kts 238°
2026-04-27 16:31 -33.74296 20.10949 23224 ft 353 kts 237°
2026-04-27 16:31 -33.77589 20.06576 22703 ft 354 kts 237°
2026-04-27 16:32 -33.80874 20.02211 22180 ft 348 kts 237°
2026-04-27 16:32 -33.82501 20.00046 21936 ft 349 kts 237°
2026-04-27 16:33 -33.85751 19.95714 21434 ft 348 kts 237°
2026-04-27 16:33 -33.87371 19.93553 21184 ft 347 kts 237°
2026-04-27 16:33 -33.88987 19.91397 20943 ft 346 kts 237°
2026-04-27 16:33 -33.90599 19.89246 20688 ft 345 kts 237°
2026-04-27 16:34 -33.92207 19.87096 20445 ft 345 kts 237°
2026-04-27 16:34 -33.93797 19.84971 20210 ft 345 kts 236°
2026-04-27 16:34 -33.95399 19.82826 19968 ft 343 kts 237°
2026-04-27 16:34 -33.96858 19.80581 19738 ft 338 kts 243°
2026-04-27 16:35 -33.98066 19.78191 19501 ft 332 kts 249°
2026-04-27 16:35 -33.99114 19.75720 19267 ft 330 kts 249°
2026-04-27 16:35 -34.01229 19.70794 18802 ft 330 kts 249°
2026-04-27 16:36 -34.02286 19.68338 18579 ft 331 kts 249°
2026-04-27 16:36 -34.03343 19.65874 18316 ft 330 kts 249°
2026-04-27 16:36 -34.04389 19.63417 18061 ft 327 kts 251°
2026-04-27 16:36 -34.05137 19.60860 17787 ft 320 kts 261°
2026-04-27 16:37 -34.05444 19.58224 17528 ft 316 kts 270°
2026-04-27 16:37 -34.05336 19.55589 17268 ft 315 kts 277°
2026-04-27 16:37 -34.05099 19.52964 17003 ft 315 kts 277°
2026-04-27 16:37 -34.04879 19.50373 16756 ft 313 kts 277°
2026-04-27 16:38 -34.04659 19.47763 16505 ft 312 kts 276°
2026-04-27 16:38 -34.04441 19.45159 16248 ft 312 kts 276°
2026-04-27 16:38 -34.04221 19.42553 15999 ft 313 kts 276°
2026-04-27 16:38 -34.04000 19.39942 15756 ft 312 kts 276°
2026-04-27 16:39 -34.03777 19.37334 15503 ft 311 kts 276°
2026-04-27 16:39 -34.03553 19.34739 15257 ft 313 kts 276°
2026-04-27 16:39 -34.03329 19.32129 15022 ft 312 kts 276°
2026-04-27 16:39 -34.03118 19.29660 14801 ft 311 kts 276°
2026-04-27 16:40 -34.02902 19.27159 14566 ft 311 kts 276°
2026-04-27 16:40 -34.02679 19.24581 14416 ft 305 kts 276°
2026-04-27 16:40 -34.02462 19.22087 14321 ft 292 kts 276°
2026-04-27 16:40 -34.02257 19.19724 14164 ft 274 kts 276°
2026-04-27 16:41 -34.02065 19.17511 14014 ft 255 kts 276°
2026-04-27 16:41 -34.01886 19.15455 13865 ft 237 kts 276°
2026-04-27 16:41 -34.01719 19.13540 13684 ft 224 kts 276°
2026-04-27 16:41 -34.01558 19.11692 13404 ft 219 kts 276°
2026-04-27 16:42 -34.01400 19.09892 13123 ft 213 kts 275°
2026-04-27 16:42 -34.01243 19.08098 12881 ft 218 kts 275°
2026-04-27 16:42 -34.01085 19.06278 12620 ft 217 kts 275°
2026-04-27 16:42 -34.00927 19.04485 12351 ft 214 kts 275°
2026-04-27 16:43 -34.00768 19.02685 12109 ft 218 kts 275°
2026-04-27 16:43 -34.00610 19.00898 11855 ft 216 kts 275°
2026-04-27 16:43 -34.00449 18.99080 11606 ft 219 kts 275°
2026-04-27 16:43 -34.00289 18.97268 11353 ft 216 kts 275°
2026-04-27 16:44 -34.00128 18.95476 11110 ft 215 kts 275°
2026-04-27 16:44 -33.99968 18.93675 10877 ft 217 kts 275°
2026-04-27 16:44 -33.99807 18.91876 10623 ft 216 kts 275°
2026-04-27 16:44 -33.99647 18.90068 10378 ft 217 kts 275°
2026-04-27 16:45 -33.99484 18.88241 10162 ft 215 kts 275°
2026-04-27 16:45 -33.99239 18.86484 9994 ft 219 kts 289°
2026-04-27 16:45 -33.98326 18.85003 9632 ft 228 kts 319°
2026-04-27 16:45 -33.97351 18.84423 9374 ft 236 kts 339°
2026-04-27 16:46 -33.95725 18.84007 8984 ft 240 kts 343°
2026-04-27 16:46 -33.94088 18.83625 8488 ft 246 kts 343°
2026-04-27 16:46 -33.92361 18.83213 7980 ft 253 kts 343°
2026-04-27 16:46 -33.90639 18.82794 7470 ft 258 kts 343°
2026-04-27 16:47 -33.88885 18.82366 7011 ft 255 kts 343°
2026-04-27 16:47 -33.87171 18.81942 6643 ft 247 kts 343°
2026-04-27 16:47 -33.85520 18.81539 6378 ft 237 kts 343°
2026-04-27 16:47 -33.84043 18.80874 6108 ft 217 kts 317°
2026-04-27 16:48 -33.83051 18.79572 5853 ft 213 kts 304°
2026-04-27 16:48 -33.82155 18.78150 5593 ft 213 kts 303°
2026-04-27 16:48 -33.81274 18.76727 5336 ft 210 kts 303°
2026-04-27 16:49 -33.79534 18.73916 4709 ft 207 kts 303°
2026-04-27 16:49 -33.78662 18.72507 4600 ft 211 kts 303°
2026-04-27 16:49 -33.77791 18.71100 4501 ft 209 kts 303°
2026-04-27 16:49 -33.76920 18.69698 4400 ft 209 kts 303°
2026-04-27 16:50 -33.76050 18.68297 4296 ft 209 kts 303°
2026-04-27 16:50 -33.75179 18.66896 4193 ft 209 kts 303°
2026-04-27 16:50 -33.74306 18.65497 4097 ft 209 kts 304°
2026-04-27 16:50 -33.73399 18.64067 3988 ft 223 kts 297°
2026-04-27 16:51 -33.73034 18.62340 3854 ft 209 kts 267°
2026-04-27 16:51 -33.73189 18.60609 3828 ft 219 kts 260°
2026-04-27 16:51 -33.73481 18.58855 3773 ft 209 kts 257°
2026-04-27 16:51 -33.73802 18.57206 3631 ft 194 kts 256°
2026-04-27 16:52 -33.74125 18.55700 3503 ft 178 kts 249°
2026-04-27 16:52 -33.74794 18.54520 3354 ft 171 kts 222°
2026-04-27 16:52 -33.75876 18.53916 3108 ft 176 kts 189°
2026-04-27 16:52 -33.77122 18.54017 3038 ft 185 kts 174°
2026-04-27 16:53 -33.78334 18.54376 2998 ft 172 kts 170°
2026-04-27 16:53 -33.79433 18.54741 2990 ft 162 kts 172°
2026-04-27 16:53 -33.80571 18.55093 2989 ft 167 kts 171°
2026-04-27 16:53 -33.81652 18.55443 3035 ft 162 kts 172°
2026-04-27 16:54 -33.82760 18.55793 2999 ft 163 kts 172°
2026-04-27 16:54 -33.83848 18.56141 2985 ft 158 kts 172°
2026-04-27 16:54 -33.84892 18.56474 2784 ft 154 kts 173°
2026-04-27 16:54 -33.85919 18.56800 2585 ft 152 kts 172°
2026-04-27 16:55 -33.86892 18.57112 2372 ft 142 kts 172°
2026-04-27 16:55 -33.87865 18.57423 2146 ft 143 kts 172°
2026-04-27 16:55 -33.88810 18.57749 1926 ft 139 kts 171°
2026-04-27 16:55 -33.89740 18.58049 1684 ft 137 kts 174°
2026-04-27 16:56 -33.90660 18.58269 1515 ft 141 kts 173°
2026-04-27 16:56 -33.91614 18.58591 1237 ft 141 kts 168°
2026-04-27 16:56 -33.92439 18.58902 1064 ft 142 kts 168°
2026-04-27 16:56 -33.93383 18.59183 804 ft 135 kts 170°
2026-04-27 16:57 -33.94269 18.59463 551 ft 130 kts 167°
2026-04-27 16:57 -33.95163 18.59737 370 ft 133 kts 166°
2026-04-27 16:57 -33.96054 18.60030 210 ft 131 kts 167°
2026-04-27 16:57 -33.96911 18.60296 156 ft 114 kts 166°
2026-04-27 16:58 -33.97381 18.60446 152 ft 27 kts 163°
2026-04-27 16:58 -33.97489 18.60483 152 ft 22 kts 164°
2026-04-27 16:58 -33.97667 18.60540 153 ft 30 kts 166°
2026-04-27 16:58 -33.97824 18.60516 154 ft 16 kts 250°
2026-04-27 16:59 -33.97805 18.60460 154 ft 14 kts 321°
2026-04-27 16:59 -33.97744 18.60349 154 ft 17 kts 283°
2026-04-27 16:59 -33.97701 18.60181 154 ft 24 kts 303°
2026-04-27 16:59 -33.97623 18.60147 154 ft 8 kts 347°
2026-04-27 17:00 -33.97436 18.60060 155 ft 22 kts 343°
2026-04-27 17:00 -33.97292 18.60012 155 ft 16 kts 345°
2026-04-27 17:00 -33.97227 18.59992 155 ft 6 kts 346°
2026-04-27 17:01 -33.97153 18.59971 155 ft 15 kts 346°
2026-04-27 17:01 -33.97039 18.59944 155 ft 18 kts 345°
2026-04-27 17:01 -33.96905 18.59901 155 ft 21 kts 345°
2026-04-27 17:01 -33.96784 18.59862 155 ft 17 kts 345°
2026-04-27 17:02 -33.96692 18.59828 155 ft 0 kts 331°
2026-04-27 17:02 -33.96684 18.59812 155 ft 6 kts 297°
2026-04-27 17:02 -33.96691 18.59778 155 ft 6 kts 246°
2026-04-27 17:02 -33.96698 18.59756 154 ft 2 kts 251°
2026-04-27 17:03 -33.96703 18.59736 154 ft 0 kts 252°
2026-04-27 17:03 -33.96706 18.59725 154 ft 1 kts 256°
2026-04-27 17:03 -33.96706 18.59722 154 ft 1 kts 256°
2026-04-27 17:03 -33.96707 18.59720 154 ft 0 kts 255°